Location: Copenhagen (historical)
(34.9842°N, 85.7250°W)
Time: 14:55:40
(UTC+00:00)

Tiangong - Visible Passes

Search period start: 14 November 2025 00:00
Search period end: 24 November 2025 00:00
Orbit: 381 x 387 km, 41.5° (Epoch: 14 November)

Date Brightness Start Highest point End Pass type
(mag) Time Alt. Az. Time Alt. Az. Time Alt. Az.
14 Nov 1.0 00:53:37 10° WSW 00:54:42 14° WSW 00:54:42 14° WSW visible
14 Nov -0.2 23:53:08 10° W 23:55:55 28° SSW 23:58:33 11° SSE visible
16 Nov 0.9 23:30:52 10° WSW 23:32:46 15° SW 23:34:40 10° S visible
